EHI
0 0 0 0 0 0 0 0 0 0 0 0 0 0 0 0 1 0 0 0 0 0 0 0 0 0 0 0 0 0 0 0 0 0 0 0 0 0 0 0 0 0 0
0 0 0 0 1 1 1 1 0 1 1 0 0 0 0 0 1 0 0 0 0 0 0 0 0 0 0 0 0 0 0 0 0 0 0 0 0 0 0 0 0 0 0
0 0 0 1 2 2 2 1 1 1 1 0 0 0 0 0 0 0 0 0 0 0 0 0 0 0 0 0 0 0 0 0 0 0 0 0 0 0 0 0 0 0 0
0 0 1 2 3 3 2 1 0 1 1 0 0 0 0 0 0 0 0 0 0 0 0 0 0 0 0 0 0 0 0 0 0 0 0 0 0 0 0 0 0 0 0
0 0 1 2 3 1 1 0 0 0 0 0 0 0 0 0 0 0 0 0 0 0 0 0 0 0 0 0 0 0 0 0 0 0 0 0 0 0 0 0 0 0 0
0 0 1 2 2 1 0 0 0 0 0 0 0 0 0 0 0 0 1 0 0 0 0 0 0 0 0 0 0 0 0 0 0 0 0 0 0 0 0 0 0 0 0
1 0 1 3 3 1 0 0 0 0 0 0 0 0 0 0 0 0 0 0 0 1 1 1 0 0 0 0 0 0 0 0 0 0 0 0 0 0 0 0 0 0 0
1 0 1 3 3 2 1 0 0 0 0 0 0 0 0 0 0 0 0 0 0 1 1 1 0 0 0 1 1 1 0 0 0 0 0 0 0 0 0 0 0 0 0
1 0 0 1 1 1 1 0 0 0 0 0 0 0 0 0 0 0 0 0 0 0 0 0 0 0 1 2 3 2 1 0 0 0 0 0 0 0 0 0 0 0 0
0 0 0 0 0 0 0 0 0 0 0 0 0 1 1 0 0 0 0 0 0 0 0 0 0 0 1 2 4 4 1 0 0 0 0 0 0 0 0 0 0 0 0
0 0 0 0 0 0 0 0 0 0 0 0 0 1 1 0 0 0 0 0 0 0 0 0 0 0 0 1 3 3 1 0 0 0 0 0 0 0 0 0 0 0 0
0 0 0 0 0 0 0 0 0 0 0 0 0 1 1 0 0 0 0 0 0 0 0 0 0 0 0 0 1 2 1 0 0 0 0 0 1 1 0 0 0 0 0
0 0 0 0 0 0 0 0 0 0 0 0 0 0 0 0 0 0 0 0 0 0 0 0 0 0 0 0 0 0 0 0 0 0 0 0 1 2 1 1 0 0 0
0 0 0 0 0 0 0 0 0 0 0 0 0 0 0 0 0 0 0 0 0 0 0 0 0 0 0 0 0 0 0 0 0 0 0 0 1 2 3 2 1 0 0
0 0 0 0 0 0 0 0 0 0 0 0 0 0 0 0 0 0 0 0 0 0 0 0 0 0 0 0 0 0 0 0 0 0 0 0 1 2 3 3 2 1 1
0 0 0 0 0 0 0 0 0 0 0 0 0 0 0 0 0 0 0 0 0 0 0 0 0 0 0 0 0 0 0 0 0 0 0 0 0 1 1 2 3 3 3
1 0 0 0 0 0 0 0 0 0 0 0 0 0 0 1 1 0 0 0 0 0 0 0 0 0 0 0 0 0 0 0 0 0 0 0 0 0 0 1 3 4 4
2 1 0 0 1 1 1 0 1 1 0 0 0 0 1 2 3 2 1 1 0 0 0 0 0 0 0 0 0 0 0 0 0 0 0 0 0 0 0 0 1 2 3
3 2 1 1 2 2 2 1 1 1 0 0 1 1 2 3 4 4 4 2 1 1 0 0 0 0 0 0 0 0 0 0 0 0 0 0 0 0 0 0 0 1 1
7 5 3 4 5 5 4 2 2 2 1 1 2 3 3 4 6 7 6 4 3 2 1 0 0 0 0 0 0 0 0 0 0 0 0 0 0 0 0 0 0 0 0
13 10 8 9 11 11 9 6 4 3 3 3 5 5 5 6 8 9 8 7 6 5 3 2 0 0 0 0 0 0 0 0 0 0 0 0 0 0 0 0 0 0 0
21 18 15 15 17 17 15 12 8 5 3 4 6 7 7 7 9 10 9 9 9 8 6 5 3 2 1 0 0 0 0 0 0 0 0 0 0 0 0 0 0 0 0
26 26 23 21 21 21 20 18 13 8 5 5 5 5 6 6 7 8 8 9 9 8 7 7 6 5 3 1 1 0 0 0 0 0 0 0 0 0 0 0 0 0 0
30 31 31 28 25 24 24 25 21 14 9 5 4 4 4 4 5 6 6 7 7 7 7 7 7 6 5 3 1 0 0 0 0 0 0 0 0 0 0 0 0 0 0
31 34 36 33 28 26 27 27 24 18 10 5 3 3 3 3 3 4 5 4 4 5 6 6 5 4 3 2 1 0 0 0 0 0 0 1 1 0 0 0 0 0 0
30 35 40 36 29 25 26 26 23 18 11 5 3 3 3 3 2 2 3 2 2 4 4 4 4 2 1 1 0 0 0 0 0 0 1 2 2 1 0 0 0 0 0
Wind_Speed
1 2 8 11 12 13 14 15 15 16 16 17 18 17 17 18 18 18 18 18 18 18 18 18 17 18 18 17 17 16 16 15 14 14 14 14 14 14 14 14 13 10 15
2 3 9 10 12 13 14 14 15 16 17 17 18 17 18 18 18 18 17 17 18 18 18 18 18 17 17 17 16 16 16 15 14 14 14 13 13 13 13 14 13 9 14
4 3 6 10 12 13 13 14 15 16 17 17 17 17 17 18 17 17 17 17 17 17 17 17 17 17 16 16 15 15 14 14 14 14 13 8 10 13 13 13 13 13 13
5 4 6 11 12 12 13 14 14 16 16 16 16 16 16 16 16 16 17 17 16 16 17 17 16 16 16 15 15 14 14 14 14 13 8 7 7 12 12 13 13 13 13
4 4 6 11 12 12 12 13 14 15 15 15 15 15 15 16 16 16 16 16 16 16 16 16 16 15 15 14 14 13 13 13 13 10 7 6 6 11 12 12 12 12 12
4 4 6 11 11 11 12 12 13 14 14 15 14 14 15 15 15 15 15 15 15 15 15 15 14 14 13 13 12 12 12 13 11 7 7 6 6 9 11 11 12 12 12
4 4 5 11 11 11 11 12 13 13 13 13 13 13 13 13 14 14 14 14 14 14 14 14 13 13 12 12 11 12 12 12 8 7 6 5 6 9 11 11 11 11 11
5 4 5 9 10 10 10 11 12 12 12 12 12 12 12 13 12 12 13 13 13 13 13 12 12 11 11 11 11 11 11 10 8 7 6 5 7 9 10 10 10 10 11
4 4 4 4 6 8 10 10 11 11 11 11 11 11 11 12 12 12 11 11 11 12 11 11 11 10 10 10 10 10 10 10 6 4 5 4 7 9 9 9 9 10 11
4 4 4 4 4 4 4 8 10 10 10 10 10 10 10 10 10 10 9 9 10 10 10 9 9 9 8 8 9 9 10 8 5 4 3 4 7 8 9 9 9 10 10
4 3 3 3 3 3 3 5 6 7 7 7 7 9 7 4 4 5 7 8 8 8 8 8 8 7 7 6 7 8 7 3 4 3 2 5 7 8 8 9 9 9 9
5 3 2 3 3 2 2 3 3 3 3 3 3 4 3 3 3 4 5 6 6 6 6 6 7 6 5 3 5 6 3 4 3 2 2 5 6 7 8 8 8 9 9
5 5 3 3 2 2 2 2 2 2 2 2 3 3 3 3 2 3 2 3 3 4 3 4 4 3 2 2 2 2 3 3 2 2 2 5 5 6 7 8 8 8 8
5 5 4 4 3 2 2 2 2 1 1 1 2 2 2 2 1 1 1 1 2 1 2 2 1 2 2 2 2 2 2 2 1 1 2 5 5 6 7 7 7 7 7
6 6 5 4 4 3 2 1 2 1 1 1 1 1 2 2 1 1 0 1 1 1 1 1 1 1 1 1 1 2 2 2 2 2 2 5 5 6 6 7 7 7 7
7 7 6 6 5 4 3 2 2 2 1 1 1 2 2 2 1 1 0 0 0 0 0 0 1 0 0 1 1 2 2 3 3 3 2 4 6 6 7 7 8 8 8
8 7 6 7 6 5 4 4 2 2 2 2 2 2 2 2 2 2 1 1 1 0 1 1 1 1 0 0 0 1 2 3 3 3 3 3 3 6 8 8 8 9 9
7 7 7 7 6 6 5 4 3 3 3 2 2 2 3 3 3 2 2 1 1 1 1 1 0 1 0 0 1 1 2 2 4 4 3 3 3 3 6 9 9 9 9
8 8 7 6 7 6 5 4 3 3 3 2 2 2 3 3 3 3 2 1 1 1 1 1 1 1 1 1 1 2 2 2 3 4 4 5 5 4 4 6 9 10 11
7 7 7 6 6 5 4 3 2 1 1 1 2 3 3 3 4 3 2 2 2 1 1 1 1 1 1 1 1 1 2 3 3 4 5 5 5 6 6 6 5 6 10
7 7 7 7 6 5 3 3 2 2 2 2 2 3 3 3 4 3 2 2 2 2 2 2 1 1 0 0 1 1 2 2 3 4 4 4 5 6 6 6 5 5 5
9 9 8 8 7 6 4 3 2 2 2 2 1 2 3 3 3 3 3 3 2 2 1 2 1 1 0 1 1 1 2 3 2 2 3 4 5 4 6 7 6 6 6
11 11 10 9 8 7 6 3 3 2 1 1 1 1 2 3 3 3 3 3 3 3 2 2 2 3 2 1 1 2 1 2 3 2 2 3 3 4 5 5 7 7 7
11 9 9 9 8 7 7 6 6 4 3 3 2 2 2 2 3 4 4 4 3 2 3 3 3 2 3 2 1 1 2 2 1 2 2 2 2 3 4 4 5 6 6
9 9 8 8 8 7 7 8 6 5 3 2 2 2 2 2 2 3 4 3 3 3 3 3 2 3 3 3 2 2 2 1 2 2 3 3 2 2 3 3 3 4 5
7 8 8 8 8 8 8 7 7 7 5 4 3 3 2 2 2 3 3 3 3 3 3 3 3 4 3 3 2 2 2 2 2 2 3 3 3 2 2 2 3 3 3
Wind_Direction
27 45 81 82 84 86 86 86 92 95 97 99 102 102 103 105 105 105 104 105 105 104 102 100 100 100 102 101 102 104 105 106 107 108 108 109 111 113 113 113 112 111 115
112 73 89 88 87 86 87 89 94 96 99 100 101 102 102 103 104 104 105 105 104 104 103 102 102 101 101 102 102 103 104 105 105 106 106 107 109 109 110 112 113 116 118
94 78 89 91 90 89 88 91 97 99 99 100 101 101 101 101 103 103 103 103 102 103 103 103 102 102 101 101 102 104 104 104 104 102 99 97 104 107 111 113 115 117 118
98 84 97 97 94 91 90 92 97 99 101 102 103 103 103 103 103 103 103 102 102 103 103 102 101 101 101 100 101 103 105 105 104 100 91 94 103 112 113 115 116 118 118
89 84 103 100 97 94 92 94 99 101 103 104 104 103 104 104 104 104 103 103 104 103 103 101 101 101 101 101 100 100 104 104 101 96 91 89 96 115 116 116 117 118 119
89 88 106 104 101 98 97 99 101 103 104 104 103 102 103 104 104 103 103 103 103 103 102 102 102 103 103 102 101 101 104 104 97 93 92 97 104 115 116 117 118 120 120
98 90 105 108 105 103 103 105 105 105 105 105 104 103 104 104 103 103 103 103 104 103 102 102 103 103 104 104 105 108 108 108 101 97 97 101 109 115 116 117 118 121 122
105 93 102 113 111 108 109 110 109 108 107 106 106 104 103 103 102 101 103 105 104 102 101 102 102 101 102 105 109 113 114 112 107 102 102 107 118 116 118 119 120 125 126
93 88 79 90 103 110 112 112 111 110 109 108 108 107 106 105 105 104 104 105 104 101 101 102 100 100 101 107 112 115 117 114 106 111 115 112 121 121 121 121 123 125 128
89 85 81 78 75 78 96 114 115 114 114 112 110 107 103 104 105 106 103 104 104 102 101 100 99 99 99 105 114 117 118 112 108 109 110 125 128 127 126 126 126 128 130
120 92 91 91 88 85 92 108 106 110 109 109 106 103 92 73 77 93 104 105 104 101 99 98 99 97 91 94 111 116 114 110 114 115 119 133 133 132 130 130 130 130 132
164 157 131 121 115 104 107 84 64 71 72 79 84 88 80 73 67 80 87 98 97 91 88 86 86 83 76 71 97 105 104 118 116 126 137 143 143 140 137 137 137 139 140
173 174 164 157 140 119 98 95 73 66 70 78 92 89 84 73 61 56 52 56 55 63 61 66 64 63 69 78 91 102 120 125 130 141 156 156 155 154 151 149 149 150 150
172 187 176 170 157 142 116 104 100 86 87 89 92 99 94 86 73 61 55 45 47 53 62 62 67 68 80 100 123 131 137 139 151 155 177 173 171 168 164 163 161 161 160
182 189 182 178 174 162 145 149 129 128 134 133 124 129 131 125 124 103 46 36 34 62 76 74 75 67 74 103 152 164 169 169 178 179 187 190 184 184 182 179 179 178 176
190 192 184 188 187 177 173 166 149 165 170 155 173 178 165 159 159 145 130 1 334 86 96 102 119 82 58 130 179 182 182 187 198 198 199 204 202 199 199 197 195 193 193
191 190 187 192 186 183 183 186 175 176 168 185 197 186 178 176 175 165 169 202 228 141 111 79 54 67 120 134 186 198 191 196 205 212 209 207 213 217 215 214 212 208 207
185 186 191 193 183 187 187 186 178 176 179 197 194 186 193 186 175 168 181 203 189 143 132 132 114 78 62 134 232 241 218 212 219 221 219 216 216 224 227 226 225 223 221
186 183 184 184 179 184 183 178 175 171 185 189 179 186 196 186 177 175 189 205 172 156 169 188 149 153 152 231 247 250 234 228 229 228 226 225 225 228 230 237 235 233 232
183 182 182 180 176 168 160 150 142 153 184 180 186 192 187 181 173 174 185 197 169 158 175 171 174 141 156 209 261 276 265 248 236 232 232 230 229 231 231 235 238 242 240
179 182 184 177 174 160 150 155 157 183 193 199 205 197 187 183 177 176 185 187 182 187 194 177 167 137 125 140 69 332 313 270 247 239 234 233 236 234 232 233 232 235 243
189 189 187 183 178 178 173 162 159 156 170 189 194 190 192 190 186 187 190 196 191 185 180 181 165 146 151 138 143 83 336 333 307 253 236 232 237 236 237 236 232 231 236
198 194 194 189 183 182 169 139 114 92 75 119 187 206 205 195 193 196 195 195 196 190 199 208 189 179 195 203 169 155 164 256 299 300 259 243 239 233 240 240 236 235 232
204 196 193 188 185 181 169 166 167 175 192 205 196 207 219 207 202 200 200 200 203 201 208 217 202 189 182 205 204 206 199 185 218 304 309 284 256 243 247 244 241 238 234
198 191 189 186 187 182 180 182 180 188 194 183 184 208 222 228 222 216 207 202 207 213 217 215 204 198 196 199 196 188 191 199 207 216 281 309 306 268 254 249 244 240 232
189 187 184 184 191 185 185 185 186 189 186 182 198 211 222 228 237 233 219 210 210 217 224 219 216 213 212 211 207 191 182 189 201 201 239 272 288 290 280 262 252 249 243